Location: *
(49.5667°N, 1.3667°W)
Time: 08:21:55
(UTC+00:00)

Cosmos 2219 Rocket - Pass Details

Date: 20 September 2019
Orbit: 829 x 845 km, 71.0° (Epoch: 17 October)

Event Time Altitude Azimuth Distance (km) Brightness Sun altitude
Rises 19:44:23 0° 323° (NW) 3,383 6.4 -16.0°
Reaches altitude 10° 19:47:09 10° 312° (NW) 2,445 5.7 -16.4°
Maximum altitude 19:51:46 27° 256° (WSW) 1,548 4.2 -17.1°
Drops below altitude 10° 19:56:22 10° 200° (SSW) 2,437 4.6 -17.8°
Sets 19:59:07 0° 189° (S) 3,369 5.2 -18.2°
